Regional Weather Roundup
Issued by NWS

Home | Current Version | Previous Version | Text Only | Print | Product List | Glossary Off
Versions: 1 2 3 4 5 6 7 8 9 10 11 12 13 14 15 16 17 18 19 20 21 22 23 24 25 26 27 28 29 30 31 32 33 34 35 36 37 38 39 40 41 42 43 44 45 46 47 48 49 50

000
ASUS43 KLSX 121307
RWRMO

WEATHER SUMMARY FOR MISSOURI
NATIONAL WEATHER SERVICE SPRINGFIELD MO
800 AM CDT SAT JUL 12 2014

NOTE: "FAIR" INDICATES FEW OR NO CLOUDS BELOW 12,000 FEET WITH NO
       SIGNIFICANT WEATHER AND/OR OBSTRUCTIONS TO VISIBILITY.
       CURRENT SKY AND/OR WEATHER CONDITIONS ARE NOT AVAILABLE FOR
       CHILLICOTHE AND FARMINGTON.

MOZ001>031-035>038-043-044-053-054-121400-
...NORTHERN AND WESTERN MISSOURI...

CITY           SKY/WX    TMP DP  RH WIND       PRES   REMARKS
KANSAS CTY INT PTSUNNY   78  67  68 S13       30.05S
KANSAS C DTWN  MOSUNNY   81  66  60 SW10      30.04F
LEE`S SUMMIT   SUNNY     77  68  73 S7        30.07F
ST JOSEPH      PTSUNNY   77  68  73 SW10      30.02F
CHILLICOTHE      N/A     78  70  76 S5        30.05S
KIRKSVILLE     PTSUNNY   78  71  79 CALM      30.08R

$$
MOZ066>068-077>081-088>096-101>105-121400-
...SOUTHWEST MISSOURI...

CITY           SKY/WX    TMP DP  RH WIND       PRES   REMARKS
SPRINGFIELD    SUNNY     76  69  79 SW9       30.16R
JOPLIN         SUNNY     78  67  68 S10       30.14S

$$
MOZ032>034-039>042-045>050-055>058-069>072-121400-
...CENTRAL MISSOURI...

CITY           SKY/WX    TMP DP  RH WIND       PRES   REMARKS
COLUMBIA       CLOUDY    77  74  90 S6        30.10S
JEFFERSON CITY SUNNY     81  73  78 S6        30.10S
ROLLA          PTSUNNY   77  71  82 SW12      30.13F
SEDALIA        PTSUNNY   78  71  79 S9        30.10S
OSAGE BEACH    MOSUNNY   77  70  78 SW7       30.13R

$$
MOZ051-052-059>065-121400-
...EAST CENTRAL MISSOURI...

CITY           SKY/WX    TMP DP  RH WIND       PRES   REMARKS
ST LOUIS INTL  CLOUDY    80  73  79 SW13      30.11R
SPIRIT OF STL  CLOUDY    79  73  82 SW9       30.09S
ST CHARLES     CLOUDY    79  73  82 SW5       30.09R

$$
MOZ072>076-082>087-097>100-106>115-121400-
...SOUTH CENTRAL AND SOUTHEAST MISSOURI...

CITY           SKY/WX    TMP DP  RH WIND       PRES   REMARKS
CAPE GIRARDEAU CLOUDY    78  73  84 SW9       30.16R
FARMINGTON     PTSUNNY   75  73  94 S6        30.18R
POPLAR BLUFF   MOSUNNY   76  72  87 S5        30.16R FOG
WEST PLAINS    PTSUNNY   75  73  93 SW3       30.20R FOG

$$



USA.gov is the U.S. government's official web portal to all federal, state and local government web resources and services.